Printer-friendly version

IAU Minor Planet Center

Minor Planet Center

MPEC 2000-T09: 2000 TH1

The following Minor Planet Electronic Circular may be linked-to from your own Web pages, but must not otherwise be redistributed electronically.


Read MPEC 2000-T08 Read MPEC 2000-T10


M.P.E.C. 2000-T09                                Issued 2000 Oct. 4, 12:15 UT

     The Minor Planet Electronic Circulars contain information on unusual
         minor planets and routine data on comets.  They are published
   on behalf of Commission 20 of the International Astronomical Union by the
          Minor Planet Center, Smithsonian Astrophysical Observatory,
                          Cambridge, MA 02138, U.S.A.

             Prepared using the Tamkin Foundation Computer Network

                              MPC@CFA.HARVARD.EDU
          URL http://cfa-www.harvard.edu/iau/mpc.html  ISSN 1523-6714

                                   2000 TH1

Observations:
     K00T01H  C2000 09 30.27099 00 47 59.10 -13 11 05.9          17.9 R      699
     K00T01H  C2000 09 30.28027 00 47 59.80 -13 08 51.1                      699
     K00T01H  C2000 09 30.28960 00 48 00.49 -13 06 33.5                      699
     K00T01H  C2000 09 30.29886 00 48 01.16 -13 04 18.5                      699
     K00T01H* C2000 10 01.24957 00 49 46.72 -09 16 14.3          18.4        704
     K00T01H  C2000 10 01.26556 00 49 47.83 -09 12 28.5          18.6        704
     K00T01H  C2000 10 01.28091 00 49 48.91 -09 08 52.7          18.0        704
     K00T01H  C2000 10 01.29599 00 49 49.89 -09 05 18.6          18.5        704
     K00T01H  C2000 10 01.31188 00 49 50.91 -09 01 35.6          18.0        704
     K00T01H  C2000 10 02.26027 00 51 29.34 -05 23 41.7          18.0        704
     K00T01H  C2000 10 02.27502 00 51 30.24 -05 20 22.8          18.5        704
     K00T01H  C2000 10 02.29045 00 51 31.22 -05 16 56.3          18.6        704
     K00T01H  C2000 10 02.30503 00 51 32.07 -05 13 39.4          18.9        704
     K00T01H  C2000 10 02.31988 00 51 32.98 -05 10 19.8          18.8        704
     K00T01H  C2000 10 03.24666 00 53 03.37 -01 48 10.7          18.5        704
     K00T01H  C2000 10 03.25018 00 53 03.55 -01 47 25.3          17.9        704
     K00T01H  C2000 10 03.25221 00 53 03.70 -01 46 59.7          18.4        704
     K00T01H  C2000 10 03.26160 00 53 04.19 -01 45 00.1          18.4        704
     K00T01H  C2000 10 03.26582 00 53 04.42 -01 44 05.9          18.1        704
     K00T01H  C2000 10 03.26773 00 53 04.56 -01 43 42.0          18.0        704
     K00T01H  C2000 10 03.27658 00 53 05.03 -01 41 48.7          19.3        704
     K00T01H  C2000 10 03.28134 00 53 05.25 -01 40 49.5          18.4        704
     K00T01H  C2000 10 03.28357 00 53 05.40 -01 40 20.4          18.3        704
     K00T01H  C2000 10 03.29209 00 53 05.87 -01 38 32.3          18.7        704
     K00T01H  C2000 10 03.29717 00 53 06.13 -01 37 27.9          18.5        704
     K00T01H  C2000 10 03.30680 00 53 06.62 -01 35 25.4          19.0        704
     K00T01H  C2000 10 03.30961 00 53 06.85 -01 34 49.7          17.8        704
     K00T01H  C2000 10 03.32327 00 53 07.59 -01 31 57.1          19.0        704
     K00T01H  C2000 10 03.32711 00 53 07.84 -01 31 07.7          18.2        704
     K00T01H  C2000 10 03.93487 00 54 04.41 +00 34 34.8          18.1        163
     K00T01H  C2000 10 03.93537 00 54 04.45 +00 34 40.1                      163
     K00T01H  C2000 10 03.93588 00 54 04.51 +00 34 46.3                      163
     K00T01H  C2000 10 03.93613 00 54 04.53 +00 34 49.1                      163

Observer details:
163 Roeser Observatory, Luxembourg.  Observer M. Dawson.  0.457-m f/4.5
    reflector + CCD.
699 Lowell Observatory-LONEOS.  Observer W. D. Ferris.  Measurer B. W. Koehn.
    0.59-m LONEOS Schmidt + CCD.
704 Lincoln Laboratory ETS, New Mexico.  Observers M. Blythe, F. Shelly,
    M. Bezpalko, M. Elowitz, R. Huber, L. Manguso.  Measurers J. Stuart,
    R. Sayer, J. B. Evans, H. Viggh.  1.0-m f/2.15 reflector + CCD.

Orbital elements:
2000 TH1
Epoch 2000 Sept. 13.0 TT = JDT 2451800.5                Spahr
M 359.93415              (2000.0)            P               Q
n   0.28580287     Peri.  335.30003     +0.97679945     +0.20901410
a   2.2825747      Node    12.89761     -0.14466981     +0.80462140
e   0.5375596      Incl.   12.06279     -0.15790341     +0.55578549
P   3.45           H   22.3           G   0.15
From 33 observations 2000 Sept. 30-Oct. 3.

Ephemeris:
2000 TH1                 a,e,i = 2.28, 0.54, 12                  q = 1.0556
Date    TT    R. A. (2000) Decl.     Delta      r     Elong.  Phase     V
2000 09 23    00 29.25   -43 04.4    0.079    1.062   136.4    40.7    18.5
2000 10 03    00 52.64   -02 40.1    0.083    1.083   172.3     7.1    17.6
2000 10 13    01 04.09   +22 42.7    0.122    1.116   164.9    13.5    18.7
2000 10 23    01 11.11   +33 31.8    0.178    1.160   156.1    20.4    19.9
2000 11 02    01 17.46   +37 56.9    0.244    1.212   151.8    22.7    20.7
2000 11 12    01 25.25   +39 31.3    0.318    1.272   148.6    23.9    21.5
2000 11 22    01 35.05   +39 44.9    0.402    1.336   144.9    25.1    22.1

Timothy B. Spahr             (C) Copyright 2000 MPC           M.P.E.C. 2000-T09

Read MPEC 2000-T08 Read MPEC 2000-T10


Our Web policy. Index to the CBAT/MPC/ICQ pages.


Valid HTML 4.01!